Flag for Russia Weather past 2 weeks in Barnaul, Russia

Now
9 °F

Sunny.


Feels Like: -4 °F
Forecast: -9 / 5 °F
Wind: 8 mph from Southwest

Location: Barnaul Airport

Current Time: Jan 29, 2015 at 11:02:12 AM

Latest Report: Jan 29, 2015 at 10:30 AM


Visibility: 10 mi

Pressure: 30.51 "Hg

Humidity: 66%

Dew point: 0 °F

Location of BarnaulLocation

Historic Weather in Barnaul — Graph

°F

Barnaul temperature yesterday

Maximum temperature yesterday: 12 °F (at 11:30 PM)
Minimum temperature yesterday: 1 °F (at 12:00 AM)
Average temperature yesterday: 5 °F

Past Weeks' High & Low Weather Summary

 TemperatureHumidityPressure
High28 °F (Jan 14, 7:30 PM)93% (Jan 15, 7:30 AM)30.95 "Hg (Jan 15, 7:30 AM)
Low-29 °F (Jan 27, 5:30 AM)52% (Jan 22, 2:00 PM)29.68 "Hg (Jan 21, 7:00 AM)
Average8 °F75%30.29 "Hg
* Reported Jan 14 10:00 AM — Jan 29 10:00 AM, Barnaul, Weather by CustomWeather, © 2014

Note: Actual official high and low records may vary slightly from our data, if they occured in-between our weather recording intervals... More about our weather records

Advertising

Barnaul weather history for previous 24 hours

 ConditionsComfort  
Time TempWeatherWind HumidityBarometerVisibility
10:00 AM
Jan 29
9 °FSunny.6 mph66%30.51 "Hg10 mi
9:30 AM9 °FBroken clouds.8 mph66%30.51 "HgN/A
9:00 AM10 °FBroken clouds.15 mph61%30.51 "HgN/A
8:30 AM10 °FPartly sunny.15 mph61%30.51 "HgN/A
8:00 AM9 °FPassing clouds.15 mph66%30.51 "HgN/A
7:30 AM9 °FPassing clouds.17 mph66%30.51 "HgN/A
7:00 AM9 °FPassing clouds.17 mph66%30.48 "HgN/A
6:30 AM9 °FPassing clouds.17 mph66%30.48 "HgN/A
6:00 AM10 °FPassing clouds.17 mph61%30.48 "HgN/A
5:30 AM10 °FPassing clouds.17 mph61%30.48 "HgN/A
5:00 AM10 °FPassing clouds.17 mph61%30.48 "HgN/A
4:30 AM10 °FPassing clouds.20 mph61%30.48 "HgN/A
4:00 AM10 °FPassing clouds.17 mph61%30.48 "HgN/A
3:30 AM10 °FPassing clouds.17 mph61%30.48 "HgN/A
3:00 AM10 °FPassing clouds.15 mph61%30.48 "HgN/A
2:30 AM10 °FPassing clouds.17 mph61%30.48 "HgN/A
2:00 AM10 °FPassing clouds.15 mph61%30.48 "HgN/A
1:30 AM10 °FPassing clouds.15 mph61%30.48 "HgN/A
1:00 AM12 °FPassing clouds.17 mph57%30.48 "HgN/A
12:30 AM12 °FPassing clouds.17 mph57%30.48 "HgN/A
12:00 AM12 °FPassing clouds.20 mph57%30.48 "HgN/A
11:30 PM
Jan 28
12 °FPassing clouds.17 mph57%30.48 "HgN/A
11:00 PM10 °FPassing clouds.20 mph61%30.48 "HgN/A
10:30 PM10 °FPassing clouds.20 mph61%30.45 "HgN/A
10:00 PM10 °FPassing clouds.17 mph56%30.48 "HgN/A
9:30 PM10 °FPassing clouds.15 mph56%30.48 "HgN/A
9:00 PM9 °FPassing clouds.15 mph61%30.48 "HgN/A
8:30 PM9 °FPassing clouds.15 mph61%30.48 "HgN/A
8:00 PM9 °FLight snow. Passing clouds.15 mph66%30.48 "HgN/A
7:30 PM9 °FLight snow. Partly cloudy.15 mph72%30.48 "HgN/A
7:00 PM7 °FLight snow. Passing clouds.13 mph72%30.48 "HgN/A
6:30 PM7 °FLight snow. Passing clouds.13 mph72%30.48 "HgN/A
6:00 PM9 °FPassing clouds.10 mph66%30.48 "HgN/A
5:30 PM9 °FPassing clouds.10 mph61%30.48 "HgN/A
5:00 PM9 °FPassing clouds.10 mph66%30.48 "HgN/A
4:30 PM7 °FPartly sunny.8 mph72%30.48 "HgN/A
4:00 PM9 °FPartly sunny.8 mph66%30.48 "HgN/A
3:30 PM9 °FLight snow. Partly sunny.8 mph66%30.48 "HgN/A
3:00 PM7 °FSunny.6 mph72%30.48 "Hg10 mi
2:30 PM7 °FSunny.6 mph66%30.48 "Hg10 mi
2:00 PM7 °FBroken clouds.8 mph66%30.48 "HgN/A
1:30 PM7 °FBroken clouds.10 mph66%30.48 "HgN/A
1:00 PM5 °FBroken clouds.13 mph72%30.48 "HgN/A
12:30 PM5 °FBroken clouds.17 mph72%30.48 "HgN/A
12:00 PM5 °FBroken clouds.17 mph72%30.48 "Hg4 mi
11:30 AM5 °FBroken clouds.15 mph66%30.51 "HgN/A
11:00 AM3 °FBroken clouds.10 mph72%30.51 "HgN/A
Weather by CustomWeather, © 2014

See weather overviewHow to use our weather pages